This is the latest recevied weather packets stored in our database for station/object KC4JIR. If no packets are shown the sender has not sent any weather packets the latest 10 day(s).
| Time | Temp. | Humidity | Pressure | Rain* | Wind** | Luminosity | Snow |
|---|---|---|---|---|---|---|---|
| 1777695236 | 14.44° C | 99% | 1011 hPa | 0 mm | - | 0 W/m² | - |
| 1777694933 | 14.44° C | 99% | 1011.1 hPa | 1.78 mm | - | 0 W/m² | - |
| 1777694630 | 14.44° C | 99% | 1011 hPa | 1.78 mm | - | 0 W/m² | - |
| 1777694326 | 15° C | 99% | 1011.1 hPa | 1.27 mm | - | 0 W/m² | - |
| 1777694023 | 15° C | 99% | 1011.6 hPa | 3.05 mm | - | 0 W/m² | - |
| 1777693720 | 15.56° C | 99% | 1011.6 hPa | 4.83 mm | - | 0 W/m² | - |
| 1777693419 | 15.56° C | 99% | 1011.3 hPa | 3.05 mm | - | 0 W/m² | - |
| 1777690695 | 15.56° C | 99% | 1011.1 hPa | 0 mm | - | 0 W/m² | - |
| 1777690393 | 15.56° C | 99% | 1011.1 hPa | 1.27 mm | - | 0 W/m² | - |
| 1777690091 | 15.56° C | 99% | 1011.2 hPa | 1.27 mm | - | 0 W/m² | - |
| 1777688881 | 16.11° C | 98% | 1011.1 hPa | 0 mm | - | 0 W/m² | - |
| 1777688577 | 16.11° C | 98% | 1011.2 hPa | 0 mm | - | 0 W/m² | - |
| 1777688274 | 16.11° C | 98% | 1011 hPa | 0 mm | - | 0 W/m² | - |
| 1777687971 | 16.11° C | 98% | 1010.7 hPa | 1.78 mm | - | 0 W/m² | - |
| 1777687669 | 16.11° C | 98% | 1010.6 hPa | 1.78 mm | - | 0 W/m² | - |
| 1777687366 | 16.11° C | 97% | 1010.7 hPa | 0 mm | - | 0 W/m² | - |
| 1777687064 | 16.11° C | 97% | 1010.4 hPa | 0 mm | - | 0 W/m² | - |
| 1777686760 | 16.11° C | 96% | 1010.3 hPa | 0 mm | - | 0 W/m² | - |
| 1777686457 | 16.11° C | 96% | 1010.4 hPa | 0 mm | - | 0 W/m² | - |
| 1777686154 | 16.11° C | 96% | 1010 hPa | 0 mm | - | 0 W/m² | - |
| 1777685850 | 16.11° C | 95% | 1010.2 hPa | 0 mm | - | 0 W/m² | - |
| 1777685546 | 16.11° C | 95% | 1010.5 hPa | 0 mm | - | 0 W/m² | - |
| 1777685243 | 16.11° C | 95% | 1010.3 hPa | 0 mm | - | 0 W/m² | - |
| 1777684941 | 16.11° C | 95% | 1010.2 hPa | 0 mm | - | 0 W/m² | - |
| 1777684638 | 16.11° C | 95% | 1010.3 hPa | 0 mm | - | 0 W/m² | - |
* Rain latest hour (hover to see other rain measurements)
** Current wind speed in m/s (hover to see current wind gust speed)